CW6617 Weather Reports


time (UTC)temp
C
wind
direction
speed
KPH
gust
KPH
rain 1hr
cm
rain 24hr
cm
rain mn
cm
humidity
%
barometer
mb
20260507221704 8 62 3.2 8.0 0.00 0.00 0.00 84 1016.5
20260507221203 8 119 1.6 4.8 0.00 0.00 0.00 83 1016.4
20260507220704 8 148 1.6 4.8 0.00 0.00 0.00 83 1016.5
20260507220204 9 158 1.6 3.2 0.00 0.00 0.00 83 1016.6
20260507214704 9 158 0.0 0.0 0.00 0.00 0.00 82 1016.9
20260507213703 10 158 0.0 0.0 0.00 0.00 0.00 81 1016.9
20260507213204 10 158 0.0 0.0 0.00 0.00 0.00 81 1016.9
20260507211705 10 158 0.0 1.6 0.00 0.00 0.00 80 1016.8
20260507211204 10 158 1.6 3.2 0.00 0.00 0.00 80 1016.8
20260507210704 10 157 1.6 4.8 0.00 0.00 0.00 80 1016.7
20260507210204 10 157 1.6 3.2 0.00 0.00 0.00 79 1016.7
20260507204204 11 157 0.0 1.6 0.00 0.00 0.00 77 1016.4
20260507203703 11 157 0.0 0.0 0.00 0.00 0.00 77 1016.4
20260507203205 11 157 0.0 1.6 0.00 0.00 0.00 77 1016.4
20260507201203 11 157 0.0 0.0 0.00 0.00 0.00 75 1016.2
20260507200203 12 157 0.0 0.0 0.00 0.00 0.00 74 1016.1
20260507194703 12 157 0.0 1.6 0.00 0.00 0.00 73 1015.9
20260507193704 12 157 1.6 3.2 0.00 0.00 0.00 72 1015.8
20260507193203 12 157 0.0 4.8 0.00 0.00 0.00 72 1015.6
20260507191705 12 157 0.0 3.2 0.00 0.00 0.00 70 1015.5
20260507191204 12 159 3.2 9.7 0.00 0.00 0.00 70 1015.5
20260507190703 13 167 1.6 8.0 0.00 0.00 0.00 69 1015.4
20260507190204 13 168 4.8 12.9 0.00 0.00 0.00 70 1015.4
20260507184205 13 165 9.7 16.1 0.00 0.00 0.00 69 1015.5
20260507181703 14 173 6.4 20.9 0.00 0.00 0.00 68 1015.3
20260507181204 14 169 11.3 14.5 0.00 0.00 0.00 68 1015.3
20260507180704 14 162 9.7 20.9 0.00 0.00 0.00 68 1015.3
20260507180204 14 168 9.7 19.3 0.00 0.00 0.00 67 1015.2
20260507174704 14 171 4.8 16.1 0.00 0.00 0.00 65 1015.0
20260507174204 15 168 6.4 19.3 0.00 0.00 0.00 65 1015.1
20260507173703 15 166 4.8 14.5 0.00 0.00 0.00 64 1015.1
20260507173205 15 167 6.4 14.5 0.00 0.00 0.00 63 1015.1
20260507171203 15 169 1.6 11.3 0.00 0.00 0.00 61 1015.1
20260507170704 15 171 4.8 11.3 0.00 0.00 0.00 61 1015.1
20260507164704 15 165 8.0 14.5 0.00 0.00 0.00 60 1015.1
20260507164204 15 167 8.0 11.3 0.00 0.00 0.00 61 1015.2
20260507163704 15 182 8.0 16.1 0.00 0.00 0.00 61 1015.1
20260507161704 15 171 8.0 16.1 0.00 0.00 0.00 61 1015.1
20260507161203 15 170 11.3 20.9 0.00 0.00 0.00 62 1015.2
20260507160705 15 162 11.3 20.9 0.00 0.00 0.00 62 1015.2
20260507154203 15 167 11.3 19.3 0.00 0.00 0.00 62 1015.2
20260507153704 15 166 4.8 12.9 0.00 0.00 0.00 61 1015.2
20260507153204 16 159 8.0 22.5 0.00 0.00 0.00 61 1015.3
20260507151704 16 169 11.3 20.9 0.00 0.00 0.00 56 1015.2
20260507151203 16 155 3.2 12.9 0.00 0.00 0.00 52 1015.2
20260507150704 16 173 6.4 11.3 0.00 0.00 0.00 52 1015.1
20260507150204 16 82 0.0 9.7 0.00 0.00 0.00 51 1015.2
20260507144704 16 45 1.6 8.0 0.00 0.00 0.00 51 1015.2
20260507144204 16 161 3.2 11.3 0.00 0.00 0.00 51 1015.3
20260507143704 16 98 3.2 12.9 0.00 0.00 0.00 51 1015.3
20260507141204 16 116 4.8 12.9 0.00 0.00 0.00 51 1015.5
20260507140704 16 127 6.4 11.3 0.00 0.00 0.00 51 1015.5
20260507134704 15 105 3.2 12.9 0.00 0.00 0.00 51 1015.5
20260507134204 15 126 3.2 8.0 0.00 0.00 0.00 51 1015.5
20260507133703 15 103 1.6 8.0 0.00 0.00 0.00 51 1015.6
20260507133204 15 53 1.6 9.7 0.00 0.00 0.00 49 1015.5
20260507131704 16 15 3.2 8.0 0.00 0.00 0.00 49 1015.5
20260507131206 16 164 0.0 8.0 0.00 0.00 0.00 47 1015.6
20260507130203 16 166 3.2 11.3 0.00 0.00 0.00 47 1015.5
20260507124703 17 173 3.2 9.7 0.00 0.00 0.00 43 1015.6
20260507124203 17 200 3.2 9.7 0.00 0.00 0.00 45 1015.6
20260507123704 18 207 6.4 9.7 0.00 0.00 0.00 44 1015.6
20260507123204 17 185 4.8 11.3 0.00 0.00 0.00 47 1015.6
20260507121703 15 185 4.8 8.0 0.00 0.00 0.00 49 1015.7
20260507121204 15 149 1.6 3.2 0.00 0.00 0.00 48 1015.8
20260507120204 15 56 4.8 8.0 0.00 0.00 0.00 51 1015.8
20260507114704 14 312 3.2 9.7 0.00 0.00 0.00 51 1015.9
20260507113704 15 26 3.2 9.7 0.00 0.00 0.00 51 1015.9
20260507111704 15 71 1.6 4.8 0.00 0.00 0.00 52 1015.9
20260507111203 15 52 3.2 9.7 0.00 0.00 0.00 54 1016.0
20260507110704 15 65 8.0 12.9 0.00 0.00 0.00 52 1016.0
20260507110203 15 61 0.0 12.9 0.00 0.00 0.00 53 1016.1
20260507104704 16 45 3.2 9.7 0.00 0.00 0.00 52 1016.1
20260507103703 15 300 3.2 8.0 0.00 0.00 0.00 54 1016.1
20260507101204 16 311 3.2 9.7 0.00 0.00 0.00 56 1016.3
20260507100703 15 56 4.8 8.0 0.00 0.00 0.00 55 1016.2
20260507100204 16 155 8.0 12.9 0.00 0.00 0.00 58 1016.3
20260507094704 15 218 1.6 11.3 0.00 0.00 0.00 56 1016.3
20260507094204 15 189 8.0 11.3 0.00 0.00 0.00 60 1016.3
20260507093704 15 221 1.6 9.7 0.00 0.00 0.00 62 1016.2
20260507093204 15 172 1.6 9.7 0.00 0.00 0.00 62 1016.2
20260507091704 14 185 1.6 8.0 0.00 0.00 0.00 63 1016.3
20260507090703 14 187 8.0 11.3 0.00 0.00 0.00 68 1016.3
20260507090204 13 108 3.2 11.3 0.00 0.00 0.00 70 1016.3
20260507084704 13 159 1.6 8.0 0.00 0.00 0.00 76 1016.4
20260507084204 12 159 4.8 14.5 0.00 0.00 0.00 77 1016.4
20260507083704 12 155 4.8 14.5 0.00 0.00 0.00 80 1016.4
20260507083204 12 175 3.2 11.3 0.00 0.00 0.00 83 1016.3
20260507081704 10 171 3.2 11.3 0.00 0.00 0.00 89 1016.4
20260507081203 10 168 3.2 11.3 0.00 0.00 0.00 90 1016.4
20260507080704 10 173 6.4 11.3 0.00 0.00 0.00 92 1016.4
20260507080204 9 174 6.4 12.9 0.00 0.00 0.00 93 1016.3
20260507073704 8 165 4.8 9.7 0.00 0.00 0.00 95 1016.2
20260507073203 8 128 3.2 8.0 0.00 0.00 0.00 95 1016.3
20260507071704 7 105 1.6 8.0 0.00 0.00 0.00 95 1016.2
20260507071203 7 53 3.2 8.0 0.00 0.00 0.00 96 1016.2
20260507070704 6 16 3.2 8.0 0.00 0.00 0.00 95 1016.2
20260507070203 6 47 0.0 3.2 0.00 0.00 0.00 95 1016.2
20260507064703 5 45 0.0 0.0 0.00 0.00 0.00 94 1016.3
20260507064204 5 45 0.0 0.0 0.00 0.00 0.00 94 1016.2
20260507063704 5 45 0.0 0.0 0.00 0.00 0.00 94 1016.2
20260507063204 5 45 0.0 0.0 0.00 0.00 0.00 94 1016.2
20260507061203 3 46 0.0 0.0 0.00 0.00 0.00 93 1016.2
20260507060704 3 46 0.0 0.0 0.00 0.00 0.00 93 1016.1
20260507060203 3 46 0.0 0.0 0.00 0.00 0.00 93 1016.2
20260507054703 3 46 0.0 0.0 0.00 0.00 0.00 92 1016.1
20260507054204 2 46 0.0 0.0 0.00 0.00 0.00 92 1016.0
20260507053704 2 46 0.0 0.0 0.00 0.00 0.00 92 1016.0
20260507051704 2 46 0.0 0.0 0.00 0.00 0.00 91 1015.9
20260507051204 2 46 0.0 0.0 0.00 0.00 0.00 91 1015.8
20260507050204 2 46 0.0 0.0 0.00 0.00 0.00 91 1015.8
20260507044703 2 46 0.0 0.0 0.00 0.00 0.00 91 1015.7
20260507044204 2 46 0.0 0.0 0.00 0.00 0.00 91 1015.7
20260507043704 2 46 0.0 0.0 0.00 0.00 0.00 91 1015.7
20260507043204 3 46 0.0 0.0 0.00 0.00 0.00 91 1015.6
20260507041204 3 46 0.0 0.0 0.00 0.00 0.00 91 1015.7
20260507040704 3 46 0.0 0.0 0.00 0.00 0.00 91 1015.6
20260507040204 3 46 0.0 0.0 0.00 0.00 0.00 91 1015.6
20260507034704 3 46 0.0 0.0 0.00 0.00 0.00 91 1015.6
20260507034204 3 46 0.0 0.0 0.00 0.00 0.00 91 1015.6
20260507033703 3 46 0.0 0.0 0.00 0.00 0.00 90 1015.6
20260507033204 3 46 0.0 0.0 0.00 0.00 0.00 90 1015.6
20260507031704 3 46 0.0 0.0 0.00 0.00 0.00 91 1015.6
20260507031203 3 46 0.0 0.0 0.00 0.00 0.00 91 1015.6
20260507030703 3 46 0.0 0.0 0.00 0.00 0.00 90 1015.6
20260507030204 4 46 0.0 0.0 0.00 0.00 0.00 90 1015.6
20260507024703 4 46 0.0 0.0 0.00 0.00 0.00 90 1015.6
20260507023205 4 46 0.0 0.0 0.00 0.00 0.00 90 1015.5
20260507021704 4 46 0.0 0.0 0.00 0.00 0.00 89 1015.6
20260507021204 4 46 0.0 0.0 0.00 0.00 0.00 89 1015.6
20260507020703 4 46 0.0 0.0 0.00 0.00 0.00 89 1015.5
20260507014704 5 46 0.0 0.0 0.00 0.00 0.00 89 1015.2
20260507014204 5 46 0.0 0.0 0.00 0.00 0.00 89 1015.3
20260507013204 5 46 0.0 0.0 0.00 0.00 0.00 89 1015.3
20260507011704 5 46 0.0 0.0 0.00 0.00 0.00 89 1015.3
20260507010703 5 46 0.0 0.0 0.00 0.00 0.00 88 1015.3
20260507010204 5 46 0.0 0.0 0.00 0.00 0.00 88 1015.3
20260507004704 5 46 0.0 0.0 0.00 0.00 0.00 87 1015.3
20260507004203 5 46 0.0 0.0 0.00 0.00 0.00 87 1015.3
20260507003704 6 46 0.0 0.0 0.00 0.00 0.00 87 1015.3
20260507003204 6 46 0.0 0.0 0.00 0.00 0.00 87 1015.3
20260507001704 6 46 0.0 0.0 0.00 0.00 0.00 86 1015.4
20260507001203 6 46 0.0 0.0 0.00 0.00 0.00 86 1015.4
20260507000703 6 46 0.0 0.0 0.00 0.00 0.00 86 1015.4
20260507000205 6 46 0.0 0.0 0.00 0.00 0.00 85 1015.4
20260506234704 6 46 0.0 0.0 0.00 0.00 0.00 85 1015.4
20260506234204 6 46 0.0 0.0 0.00 0.00 0.00 85 1015.3
20260506233704 7 46 0.0 0.0 0.00 0.00 0.00 84 1015.2
20260506233204 7 46 0.0 0.0 0.00 0.00 0.00 84 1015.3
20260506231703 7 46 0.0 0.0 0.00 0.00 0.00 83 1015.2
20260506231204 7 46 0.0 0.0 0.00 0.00 0.00 83 1015.1
20260506230703 7 46 0.0 0.0 0.00 0.00 0.00 82 1015.1
20260506230205 7 46 0.0 0.0 0.00 0.00 0.00 82 1015.2
20260506224706 8 46 0.0 0.0 0.00 0.00 0.00 81 1015.2
20260506224204 8 46 0.0 0.0 0.00 0.00 0.00 81 1015.2
20260506223704 8 46 0.0 0.0 0.00 0.00 0.00 81 1015.1